Regional Weather Roundup
Issued by NWS

Home | Current Version | Previous Version | Text Only | Print | Product List | Glossary Off
Versions: 1 2 3 4 5 6 7 8 9 10 11 12 13 14 15 16 17 18 19 20 21 22 23 24 25 26 27 28 29 30 31 32 33 34 35 36 37 38 39 40 41 42 43 44 45 46 47 48 49 50

000
ASUS44 KMEG 230310
RWRTN
TENNESSEE HOURLY STATE WEATHER ROUNDUP
NATIONAL WEATHER SERVICE MEMPHIS TN
900 PM CST THU FEB 22 2018

TNZ002-004-019-021-049-052-054-088>092-230400-
WEST TENNESSEE

CITY           SKY/WX    TMP DP  RH WIND       PRES   REMARKS
MEMPHIS INTL   CLOUDY    54  53  97 E9        30.23F
NWS MEMPHIS      N/A     53 N/A N/A MISG        N/A
JACKSON        FOG       54  54 100 E8        30.27F VSB 3/4
DYERSBURG      CLOUDY    52  50  93 E8        30.26F
COVINGTON      CLOUDY    52  52 100 SE10      30.25F
UNION CITY     CLOUDY    52  50  93 N6        30.28F
BOLIVAR        FOG       55  54  94 E3        30.26F VSB 0
PARIS          CLOUDY    55  54  94 E5        30.28F
HUNTINGDON     CLOUDY    55  55 100 E3        30.28F
LEXINGTON      CLOUDY    55  55 100 NE6       30.29F
SELMER         FOG       55  55 100 CALM      30.28S VSB 0
SAVANNAH       FOG       55  55 100 CALM      30.28S VSB 1/2
$$

TNZ008-025-027-028-033-062-065-066-230400-
NORTH MIDDLE TENNESSEE

CITY           SKY/WX    TMP DP  RH WIND       PRES   REMARKS
NASHVILLE      FOG       58  57  97 E3        30.33F VSB 1/4
PORTLAND       FOG       57  57 100 CALM      30.32S VSB 1/4
CLARKSVILLE    CLOUDY    56  53  90 E5        30.31F
SMYRNA         FOG       57  57 100 CALM      30.34S VSB 1/4
COOKEVILLE     FOG       55  55 100 CALM      30.34S VSB 1
GALLATIN       FOG       59  59 100 CALM      30.35F VSB 3/4
CROSSVILLE     FOG       57  56  96 CALM      30.38S VSB 1/4
$$

TNZ061-075-076-078-094-096-097-230400-
SOUTH MIDDLE TENNESSEE

CITY           SKY/WX    TMP DP  RH WIND       PRES   REMARKS
FAYETTEVILLE   PTCLDY    63  59  88 S6        30.33S
TULLAHOMA      MOCLDY    61  59  94 SE5       30.33S
WINCHESTER     CLEAR     59  57  94 CALM      30.35R
MCMINNVILLE    FOG       57  57 100 CALM      30.34S VSB 3/4
COLUMBIA       CLOUDY    59  59 100 CALM      30.29F
SHELBYVILLE    PTCLDY    59  59 100 E3        30.32F
$$

TNZ017-018-042-046-047-230400-
NORTHEAST TENNESSEE

CITY           SKY/WX    TMP DP  RH WIND       PRES   REMARKS
TRI CITIES     FAIR      62  57  83 CALM      30.37R
ELIZABETHTON   FAIR      59  55  88 CALM      30.38S
$$

TNZ012-013-036-069-073-074-230400-
CENTRAL EAST TENNESSEE

CITY           SKY/WX    TMP DP  RH WIND       PRES   REMARKS
KNOXVILLE      MOCLDY    63  61  93 CALM      30.34S
OAK RIDGE      MOCLDY    62  62 100 CALM      30.36  FOG
DOWNTOWN KNOXV PTCLDY    57  57 100 CALM      30.36R
GATLINBURG     CLEAR     61  59  94 CALM      30.35S
MORRISTOWN     CLEAR     64  59  82 CALM      30.36S
JACKSBORO      PTCLDY    59  59 100 CALM      30.39R
$$

TNZ083-085-099-230400-
SOUTHEAST TENNESSEE

CITY           SKY/WX    TMP DP  RH WIND       PRES   REMARKS
CHATTANOOGA    FAIR      64  59  83 CALM      30.35R
$$

SKY/WX REPORTED AS FAIR MEANS FEW OR NO CLOUDS BELOW
12 THOUSAND FEET.





USA.gov is the U.S. government's official web portal to all federal, state and local government web resources and services.